Change the Weather History Date:

Wednesday, February 5, 2014

  Actual Average Record
Temperature  
Mean Temperature 18 °F -  
Max Temperature 21 °F 26 °F 48 °F (2006)
Min Temperature 15 °F 1 °F -20 °F (2000)
Degree Days  
Heating Degree Days 47    
Moisture  
Dew Point 14 °F    
Average Humidity 81    
Maximum Humidity 89    
Minimum Humidity 72    
Precipitation  
Precipitation 0.28 in - - ()
Sea Level Pressure  
Sea Level Pressure 29.91 in    
Wind  
Wind Speed 4 mph (ENE)    
Max Wind Speed 14 mph    
Max Gust Speed 21 mph    
Visibility 2 miles    
Events Fog , Snow    
Averages and records for this station are not official NWS values.
T = Trace of Precipitation, MM = Missing Value Source: NWS Daily Summary

Daily Weather History Graph

Daily Weather History Graph

Search for Another Location

Airport or City:

Trip Planner

Search our weather history database for the weather conditions in past years. The results will help you decide how hot, cold, wet, or windy it might be!

Date:

Astronomy

Feb. 05, 2014 Rise Set
Actual Time 6:59 AM EST 5:01 PM EST
Civil Twilight 6:29 AM EST 5:31 PM EST
Nautical Twilight 5:54 AM EST 6:06 PM EST
Astronomical Twilight 5:20 AM EST 6:40 PM EST
Moon 9:56 AM EST (2/5) No Moon Set
Length of Visible Light 11h 02m
Length of Day
10h 01m
Waxing Crescent, 39% of the Moon is Illuminated
Feb 5
Waxing Crescent
Feb 6
First Quarter
Feb 14
Full
Feb 22
Last Quarter
Mar 1
New

Hourly Weather History & Observations

Time (EST) Temp. Windchill Dew Point Humidity Pressure Visibility Wind Dir Wind Speed Gust Speed Precip Events Conditions
12:52 AM 15.1 °F - 10.0 °F 80% 30.32 in 10.0 mi Calm Calm - N/A   Overcast
1:52 AM 16.0 °F - 10.9 °F 81% 30.27 in 10.0 mi Calm Calm - N/A   Overcast
2:52 AM 17.1 °F - 10.9 °F 77% 30.28 in 9.0 mi Calm Calm - N/A   Overcast
3:52 AM 17.1 °F - 10.9 °F 77% 30.27 in 9.0 mi Calm Calm - N/A   Overcast
4:21 AM 18.0 °F - 10.9 °F 74% 30.19 in 2.5 mi Calm Calm - 0.00 in Snow Light Snow
4:25 AM 17.1 °F - 10.9 °F 77% 30.19 in 1.0 mi Calm Calm - 0.00 in Snow Light Snow
4:32 AM 17.1 °F - 12.0 °F 81% 30.19 in 0.5 mi Calm Calm - 0.00 in Snow Snow
4:47 AM 17.6 °F - 12.2 °F 79% 30.18 in 0.5 mi Calm Calm - 0.01 in Snow Snow
4:52 AM 17.1 °F - 12.9 °F 84% 30.23 in 0.5 mi Calm Calm - 0.01 in Fog , Snow Light Snow
5:00 AM 17.1 °F - 12.9 °F 84% 30.17 in 0.5 mi Calm Calm - 0.00 in Fog , Snow Light Snow
5:52 AM 17.1 °F - 12.9 °F 84% 30.21 in 0.5 mi Calm Calm - 0.02 in Fog , Snow Light Snow
6:52 AM 18.0 °F 12.7 °F 14.0 °F 84% 30.20 in 0.5 mi NNE 3.5 mph - 0.04 in Fog , Snow Snow
7:26 AM 17.1 °F 10.0 °F 12.9 °F 84% 30.12 in 0.5 mi NE 4.6 mph - 0.02 in Fog , Snow Light Snow
7:37 AM 17.1 °F 11.7 °F 12.9 °F 84% 30.12 in 0.2 mi NE 3.5 mph - 0.02 in Fog , Snow Light Snow
7:52 AM 18.0 °F 9.8 °F 14.0 °F 84% 30.19 in 0.2 mi ENE 5.8 mph - 0.03 in Fog , Snow Light Snow
8:38 AM 19.0 °F 9.0 °F 15.1 °F 85% 30.08 in 0.2 mi East 8.1 mph - 0.02 in Fog , Snow Light Snow
8:52 AM 19.9 °F 9.3 °F 14.0 °F 78% 30.13 in 0.8 mi ENE 9.2 mph - 0.02 in Snow Light Snow
9:52 AM 19.9 °F 10.1 °F 15.1 °F 81% 30.07 in 0.5 mi East 8.1 mph - 0.00 in Snow Snow
10:52 AM 19.9 °F 8.6 °F 14.0 °F 78% 30.03 in 0.5 mi East 10.4 mph - 0.00 in Snow Snow
11:38 AM 19.9 °F 7.9 °F 14.0 °F 78% 29.90 in 1.0 mi East 11.5 mph - 0.00 in Snow Light Snow
11:52 AM 21.0 °F 9.3 °F 14.0 °F 74% 29.94 in 1.2 mi East 11.5 mph 18.4 mph 0.00 in Snow Light Snow
12:02 PM 21.0 °F 9.9 °F 14.0 °F 74% 29.87 in 3.0 mi East 10.4 mph 17.3 mph 0.00 in Snow Light Snow
12:22 PM 21.0 °F 8.1 °F 14.0 °F 74% 29.84 in 2.5 mi East 13.8 mph 20.7 mph 0.00 in Snow Light Snow
12:32 PM 21.0 °F 9.9 °F 14.0 °F 74% 29.83 in 3.0 mi East 10.4 mph - 0.00 in Snow Light Snow
12:38 PM 21.0 °F 9.9 °F 14.0 °F 74% 29.82 in 1.8 mi East 10.4 mph - 0.01 in Snow Light Snow
12:52 PM 21.0 °F 9.9 °F 14.0 °F 74% 29.86 in 1.8 mi East 10.4 mph 19.6 mph 0.01 in Snow Light Snow
1:11 PM 21.9 °F 12.5 °F 14.0 °F 72% 29.78 in 3.0 mi East 8.1 mph - 0.00 in Snow Light Snow
1:19 PM 21.0 °F 10.6 °F 14.0 °F 74% 29.77 in 1.8 mi East 9.2 mph - 0.00 in Snow Light Snow
1:24 PM 21.0 °F 8.6 °F 14.0 °F 74% 29.77 in 0.8 mi East 12.7 mph 18.4 mph 0.00 in Snow Light Snow
1:31 PM 21.0 °F 9.9 °F 15.1 °F 78% 29.77 in 0.2 mi East 10.4 mph - 0.00 in Snow Heavy Snow
1:52 PM 19.9 °F 8.6 °F 14.0 °F 78% 29.81 in 0.5 mi East 10.4 mph - 0.00 in Snow Snow
2:35 PM 19.0 °F 9.0 °F 15.1 °F 85% 29.74 in 0.2 mi East 8.1 mph - 0.01 in Fog , Snow Snow
2:47 PM 19.4 °F 9.5 °F 14.0 °F 80% 29.75 in 0.2 mi East 8.1 mph - 0.02 in Snow Heavy Snow
2:52 PM 19.0 °F 11.1 °F 15.1 °F 85% 29.82 in 0.2 mi East 5.8 mph - 0.02 in Fog , Snow Snow
3:31 PM 19.9 °F - 17.1 °F 89% 29.78 in 0.2 mi Calm Calm - 0.06 in Fog , Snow Heavy Snow
3:52 PM 19.9 °F 12.1 °F 16.0 °F 85% 29.83 in 0.2 mi ESE 5.8 mph - 0.10 in Fog , Snow Heavy Snow
4:11 PM 19.9 °F 13.4 °F 16.0 °F 85% 29.74 in 0.2 mi East 4.6 mph - 0.02 in Fog , Snow Snow
4:33 PM 19.9 °F 11.1 °F 15.1 °F 81% 29.75 in 0.2 mi East 6.9 mph - 0.03 in Snow Heavy Snow
4:40 PM 19.9 °F 10.1 °F 15.1 °F 81% 29.74 in 0.5 mi ENE 8.1 mph - 0.03 in Snow Snow
4:52 PM 19.9 °F 11.1 °F 14.0 °F 78% 29.81 in 0.8 mi East 6.9 mph - 0.03 in Snow Light Snow
5:09 PM 19.9 °F 11.1 °F 14.0 °F 78% 29.73 in 1.0 mi NE 6.9 mph - 0.00 in Snow Light Snow
5:15 PM 19.9 °F 10.1 °F 14.0 °F 78% 29.73 in 1.5 mi NE 8.1 mph - 0.00 in Snow Light Snow
5:33 PM 19.9 °F 10.1 °F 14.0 °F 78% 29.74 in 1.0 mi East 8.1 mph - 0.00 in Snow Light Snow
5:52 PM 19.9 °F 11.1 °F 14.0 °F 78% 29.80 in 1.0 mi East 6.9 mph - 0.00 in Snow Light Snow
6:00 PM 19.0 °F 10.0 °F 14.0 °F 81% 29.75 in 1.2 mi ENE 6.9 mph - 0.00 in Snow Light Snow
6:19 PM 19.0 °F 11.1 °F 14.0 °F 81% 29.75 in 1.8 mi ENE 5.8 mph - 0.00 in Snow Light Snow
6:29 PM 19.0 °F 12.3 °F 14.0 °F 81% 29.75 in 2.5 mi NE 4.6 mph - 0.00 in Snow Light Snow
6:39 PM 19.0 °F 12.3 °F 14.0 °F 81% 29.75 in 3.0 mi NNE 4.6 mph - 0.00 in Snow Light Snow
6:48 PM 19.4 °F 12.8 °F 14.0 °F 80% 29.75 in 2.0 mi North 4.6 mph - 0.00 in Snow Light Snow
6:52 PM 19.0 °F 11.1 °F 14.0 °F 81% 29.81 in 1.5 mi North 5.8 mph - 0.00 in Snow Light Snow
6:58 PM 19.0 °F 11.1 °F 15.1 °F 85% 29.75 in 1.0 mi North 5.8 mph - 0.00 in Snow Light Snow
7:05 PM 19.0 °F 13.9 °F 15.1 °F 85% 29.76 in 0.8 mi North 3.5 mph - 0.00 in Snow Light Snow
7:21 PM 19.0 °F 13.9 °F 15.1 °F 85% 29.76 in 1.0 mi North 3.5 mph - 0.00 in Snow Light Snow
7:31 PM 19.0 °F - 14.0 °F 81% 29.76 in 1.2 mi Calm Calm - 0.00 in Snow Light Snow
7:41 PM 18.0 °F - 15.1 °F 88% 29.77 in 0.8 mi Calm Calm - 0.00 in Snow Light Snow
7:52 PM 18.0 °F - 14.0 °F 84% 29.83 in 1.2 mi Calm Calm - 0.00 in Snow Light Snow
8:10 PM 18.0 °F - 15.1 °F 88% 29.77 in 1.0 mi Calm Calm - 0.00 in Snow Light Snow
8:23 PM 18.0 °F - 15.1 °F 88% 29.77 in 1.5 mi Calm Calm - 0.00 in Snow Light Snow
8:29 PM 18.0 °F - 15.1 °F 88% 29.78 in 2.0 mi Calm Calm - 0.00 in Snow Light Snow
8:41 PM 17.1 °F - 14.0 °F 88% 29.78 in 3.0 mi Calm Calm - 0.00 in   Overcast
8:52 PM 18.0 °F - 14.0 °F 84% 29.85 in 5.0 mi Calm Calm - 0.00 in   Overcast
9:44 PM 16.0 °F - 12.9 °F 88% 29.83 in 1.8 mi Calm Calm - 0.00 in Snow Light Snow
9:52 PM 17.1 °F - 12.9 °F 84% 29.89 in 1.0 mi Calm Calm - 0.00 in Snow Light Snow
10:04 PM 17.1 °F - 14.0 °F 88% 29.84 in 1.2 mi Calm Calm - 0.00 in Snow Light Snow
10:37 PM 16.0 °F - 12.9 °F 88% 29.86 in 3.0 mi Calm Calm - 0.00 in Snow Light Snow
10:50 PM 15.8 °F 10.2 °F 12.2 °F 86% 29.87 in 3.0 mi NNW 3.5 mph - 0.00 in   Overcast
10:52 PM 16.0 °F 10.4 °F 12.0 °F 84% 29.93 in 3.0 mi NW 3.5 mph - 0.00 in   Overcast
11:29 PM 17.1 °F 8.7 °F 12.0 °F 81% 29.89 in 2.5 mi NNW 5.8 mph - 0.00 in Snow Light Snow
11:34 PM 17.1 °F 8.7 °F 10.9 °F 77% 29.89 in 4.0 mi NNW 5.8 mph - 0.00 in Snow Light Snow
11:52 PM 17.1 °F 11.7 °F 12.0 °F 81% 29.97 in 5.0 mi WNW 3.5 mph - 0.00 in   Haze